#datint,netname,site,siteID,timestamp,IntT,BattV,AirT2,AirT,AirT_Avg,AirT_Max,AirT_Min,RH_Avg,RH_Max,RH_Min,EA_Avg,Td_Avg,Td_Max,Td_Min,WindS_Smp,WindS_Avg,WindD_Avg,WindD_SD,WindS_Max,ETo,ETr,SoilT4,SoilT8,SoilVWC8,SolarW_Avg,wetstate_Avg,wetT_Avg,Precip_accum,Precip_WPG,Precip_TB
15min,AgWx,beryljct,423,26JUL2020:00:00:00,67.8,12.91,67.4,66.8,65.2,67.9,61.2,32,47,25,0.667,34.1,40.8,30.6,0.965,3.0,229,67,6.6,0.00015,0.00026,74.4,74.0,10,0,.,.,13.46,0.00,0.00
15min,AgWx,beryljct,423,26JUL2020:00:15:00,66.6,12.91,66.1,65.4,64.7,67.1,63.0,34,42,26,0.583,35.4,40.2,30.7,3.464,2.1,195,16,3.7,-0.00001,0.00004,74.1,73.9,9,0,.,.,13.46,0.00,0.00
15min,AgWx,beryljct,423,26JUL2020:00:30:00,65.4,12.9,62.2,62.1,62.9,66.4,60.3,38,47,24,0.704,36.2,40.7,28.6,2.039,3.1,193,13,3.9,0.00012,0.00022,73.7,73.9,9,0,.,.,13.46,0.00,0.00
15min,AgWx,beryljct,423,26JUL2020:00:45:00,64.1,12.89,57.7,58.9,60.8,64.6,58.9,45,56,28,0.953,38.7,43.4,30.2,0,0.8,158,19,2.6,-0.00024,-0.00034,73.4,73.8,9,0,.,.,13.46,0.00,0.00
15min,AgWx,beryljct,423,26JUL2020:01:00:00,62.9,12.87,57.8,58.3,59.2,60.1,58.0,45,56,41,0.896,38.0,42.9,35.7,3.354,1.7,173,30,3.4,-0.00011,-0.00012,73.0,73.7,9,0,.,.,13.46,0.00,0.00
15min,AgWx,beryljct,423,26JUL2020:01:15:00,61.8,12.86,58.7,59.4,58.5,61.0,56.4,44,60,32,0.759,36.4,43.5,30.0,4.187,4.4,191,5.0,5.5,0.00020,0.00031,72.7,73.6,9,0,.,.,13.46,0.00,0.00
15min,AgWx,beryljct,423,26JUL2020:01:30:00,61.2,12.86,61.7,60.5,59.3,61.9,58.1,45,49,36,0.742,38.1,39.5,34.0,2.411,2.9,208,6.7,4.3,0.00006,0.00012,72.3,73.5,9,0,.,.,13.46,0.00,0.00
15min,AgWx,beryljct,423,26JUL2020:01:45:00,60.9,12.85,59.9,60.5,61.0,62.6,59.8,40,47,32,0.759,36.6,40.0,32.0,2.148,1.8,210,12,2.7,-0.00008,-0.00007,72.0,73.4,9,0,.,.,13.46,0.00,0.00
15min,AgWx,beryljct,423,26JUL2020:02:00:00,60.4,12.85,53.1,53.3,56.7,61.3,53.3,54,67,35,0.900,39.7,43.7,33.6,2.368,1.5,127,14,3.5,-0.00014,-0.00017,71.7,73.3,9,0,.,.,13.46,0.00,0.00
15min,AgWx,beryljct,423,26JUL2020:02:15:00,59.3,12.84,55.7,54.9,53.2,54.9,52.3,58,67,43,0.637,38.5,41.8,33.1,0,1.1,120,13,3.0,-0.00019,-0.00026,71.4,73.2,9,0,.,.,13.46,0.00,0.00
15min,AgWx,beryljct,423,26JUL2020:02:30:00,58.5,12.83,56.4,55.6,55.5,57.7,53.9,46,57,36,0.616,34.6,39.5,30.2,3.442,2.9,199,5.6,3.9,0.00004,0.00009,71.1,73.1,9,0,.,.,13.47,0.00,0.00
15min,AgWx,beryljct,423,26JUL2020:02:45:00,57.7,12.8,52.8,54.7,54.4,56.1,52.5,54,64,41,0.772,38.0,41.3,32.1,0.723,2.3,329,29,4.6,-0.00005,-0.00004,70.8,73.0,10,0,.,.,13.47,0.00,0.00
15min,AgWx,beryljct,423,26JUL2020:03:00:00,57.6,12.82,54.6,55.6,56.5,58.5,54.0,37,54,30,0.557,30.6,38.2,27.4,3.968,4.0,356,16,5.5,0.00020,0.00031,70.5,72.9,9,0,.,.,13.47,0.00,0.00
15min,AgWx,beryljct,423,26JUL2020:03:15:00,56.9,12.81,51.7,51.2,51.8,55.5,50.8,46,52,37,0.624,31.7,34.0,28.4,3.398,4.1,321,17,6.0,0.00013,0.00021,70.2,72.8,9,0,.,.,13.47,0.00,0.00
15min,AgWx,beryljct,423,26JUL2020:03:30:00,56.0,12.79,56.7,55.4,52.8,55.4,51.1,45,52,38,0.564,32.1,34.4,30.0,4.604,4.2,317,10,5.3,0.00015,0.00023,69.9,72.7,9,0,.,.,13.47,0.00,0.00
15min,AgWx,beryljct,423,26JUL2020:03:45:00,55.6,12.78,57.8,57.1,56.2,57.6,54.7,35,39,32,0.558,29.2,30.7,28.0,3.771,4.2,304,16,4.9,0.00022,0.00035,69.6,72.5,9,0,.,.,13.47,0.00,0.00
15min,AgWx,beryljct,423,26JUL2020:04:00:00,55.9,12.78,54.3,55.7,58.2,59.6,55.7,34,40,31,0.603,29.7,32.5,28.5,3.858,4.0,306,16,4.7,0.00023,0.00036,69.3,72.4,9,0,.,.,13.47,0.00,0.00
15min,AgWx,beryljct,423,26JUL2020:04:15:00,55.7,12.77,55.0,54.3,53.1,55.5,51.6,49,57,40,0.613,34.2,37.0,31.0,1.425,3.1,315,24,5.3,0.00005,0.00010,69.0,72.3,9,0,.,.,13.47,0.00,0.00
15min,AgWx,beryljct,423,26JUL2020:04:30:00,55.4,12.77,51.0,52.0,55.6,57.2,52.0,37,45,34,0.600,29.8,31.9,27.9,3.266,2.6,345,7.1,4.2,0.00003,0.00009,68.7,72.2,9,0,.,.,13.47,0.00,0.00
15min,AgWx,beryljct,423,26JUL2020:04:45:00,54.9,12.76,48.4,48.6,50.8,51.8,48.6,47,61,40,0.710,31.0,35.8,27.9,2.543,2.0,50,43,3.5,-0.00006,-0.00005,68.4,72.0,9,0,.,.,13.47,0.00,0.00
15min,AgWx,beryljct,423,26JUL2020:05:00:00,53.8,12.76,48.0,48.1,48.0,49.0,47.1,62,71,49,0.739,35.7,38.1,30.8,4.889,2.5,153,39,5.3,-0.00007,-0.00007,68.1,71.9,9,0,.,.,13.47,0.00,0.00
15min,AgWx,beryljct,423,26JUL2020:05:15:00,52.7,12.74,51.3,50.7,48.5,50.7,47.4,59,68,49,0.618,34.6,37.8,32.3,2.653,3.7,193,11,5.5,0.00003,0.00007,67.8,71.8,9,0,.,.,13.47,0.00,0.00
15min,AgWx,beryljct,423,26JUL2020:05:30:00,52.2,12.73,50.9,50.7,50.9,51.8,49.7,52,60,48,0.606,33.7,36.6,31.8,5.678,2.7,178,6.5,5.7,-0.00001,0.00002,67.6,71.7,9,0,.,.,13.47,0.00,0.00
15min,AgWx,beryljct,423,26JUL2020:05:45:00,52.1,12.73,48.4,48.0,50.5,51.8,47.9,50,65,43,0.694,32.7,37.0,30.2,6.971,4.4,167,25,8.5,0.00013,0.00020,67.3,71.5,9,0,.,.,13.47,0.00,0.00
15min,AgWx,beryljct,423,26JUL2020:06:00:00,52.0,12.72,49.7,49.1,49.3,50.7,48.0,58,62,51,0.664,34.9,36.4,32.9,5.086,5.3,171,23,7.6,0.00049,0.00086,67.0,71.4,9,0,.,.,13.47,0.00,0.00
15min,AgWx,beryljct,423,26JUL2020:06:15:00,52.4,12.71,54.4,54.0,52.3,54.2,49.2,44,55,40,0.582,30.8,33.9,29.6,6.335,5.8,179,5.1,7.5,0.00074,0.00129,66.8,71.3,9,0,.,.,13.46,0.00,0.00
15min,AgWx,beryljct,423,26JUL2020:06:30:00,53.4,12.71,54.8,55.0,54.7,55.3,53.9,43,46,40,0.681,32.5,34.7,30.9,3.836,5.5,179,9.7,7.8,0.00076,0.00132,66.5,71.1,9,2,.,.,13.46,0.00,0.00
15min,AgWx,beryljct,423,26JUL2020:06:45:00,54.3,12.72,52.8,52.5,54.2,56.1,52.4,53,65,39,0.846,37.4,41.2,31.7,0,1.4,162,17,4.1,0.00026,0.00041,66.3,71.0,9,11,.,.,13.46,0.00,0.00
15min,AgWx,beryljct,423,26JUL2020:07:00:00,54.9,12.73,51.9,51.8,52.1,53.0,51.5,57,71,46,0.620,37.0,43.2,31.7,5.305,3.5,328,27,5.8,0.00061,0.00090,66.1,70.8,9,47,.,.,13.46,0.00,0.00
15min,AgWx,beryljct,423,26JUL2020:07:15:00,55.2,12.75,51.5,51.5,51.8,52.1,51.4,47,51,45,0.662,32.5,34.0,31.6,4.626,6.0,346,6.1,7.8,0.00099,0.00153,65.9,70.7,9,57,.,.,13.46,0.00,0.00
15min,AgWx,beryljct,423,26JUL2020:07:30:00,55.4,12.76,55.2,54.9,52.4,54.9,51.1,49,54,41,0.602,33.8,35.3,31.6,3.573,3.7,337,7.7,5.0,0.00092,0.00129,65.7,70.6,9,94,.,.,13.47,0.00,0.00
15min,AgWx,beryljct,423,26JUL2020:07:45:00,56.7,12.76,55.3,55.3,55.5,56.0,55.0,47,58,39,0.825,35.3,41.0,31.2,3.924,1.8,1.3,41,4.3,0.00110,0.00135,65.5,70.4,9,179,.,.,13.46,0.00,0.00
15min,AgWx,beryljct,423,26JUL2020:08:00:00,58.5,12.74,56.9,56.7,55.8,56.7,55.2,61,68,54,1.002,42.5,45.0,39.1,1.337,2.1,102,13,4.4,0.00119,0.00143,65.4,70.3,9,195,.,.,13.46,0.00,0.00
15min,AgWx,beryljct,423,26JUL2020:08:15:00,60.8,12.76,58.2,58.2,57.5,58.3,56.7,58,63,54,0.903,42.7,45.0,41.0,1.973,2.0,114,20,3.6,0.00153,0.00179,65.2,70.2,9,255,.,.,13.46,0.00,0.00
15min,AgWx,beryljct,423,26JUL2020:08:30:00,63.0,12.8,60.9,60.8,59.3,60.8,58.2,52,56,48,0.989,41.7,44.9,39.2,0,0.5,137,1.1,2.2,0.00173,0.00190,65.1,70.1,9,302,.,.,13.46,0.00,0.00
15min,AgWx,beryljct,423,26JUL2020:08:45:00,65.6,12.82,63.7,63.9,62.5,64.0,60.8,44,54,33,0.798,40.1,44.6,34.4,3.201,1.6,21,36,3.4,0.00222,0.00255,65.1,69.9,9,356,.,.,13.46,0.00,0.00
15min,AgWx,beryljct,423,26JUL2020:09:00:00,67.9,12.98,66.1,64.6,64.0,64.6,63.6,39,46,33,0.704,38.4,42.8,35.2,0.548,2.6,62,14,4.3,0.00269,0.00320,65.0,69.8,9,407,.,.,13.45,0.00,0.00
15min,AgWx,beryljct,423,26JUL2020:09:15:00,70.2,13.11,67.0,66.9,65.8,67.5,64.9,32,34,29,0.689,34.9,37.0,32.8,0,0.7,31,5.5,2.3,0.00263,0.00291,65.1,69.7,9,418,.,.,13.45,0.00,0.00
15min,AgWx,beryljct,423,26JUL2020:09:30:00,72.9,13.33,67.5,67.7,67.3,67.9,66.7,36,43,31,0.924,39.7,43.9,34.9,0.702,0.5,115,19,2.2,0.00320,0.00349,65.1,69.6,9,511,.,.,13.44,0.00,0.00
15min,AgWx,beryljct,423,26JUL2020:09:45:00,75.3,13.5,70.0,69.2,68.5,69.2,67.6,38,44,33,1.049,42.0,45.8,38.5,1.447,1.3,96,12,2.9,0.00361,0.00403,65.2,69.4,9,553,.,.,13.44,0.00,0.00
15min,AgWx,beryljct,423,26JUL2020:10:00:00,77.3,13.6,71.3,71.0,70.2,71.0,69.1,36,44,31,0.895,42.2,46.6,38.3,2.981,2.2,117,16,3.4,0.00403,0.00461,65.4,.,.,595,.,.,13.43,0.00,0.00
15min,AgWx,beryljct,423,26JUL2020:10:15:00,78.9,13.72,73.1,72.8,71.9,72.8,71.1,32,41,28,0.901,40.4,47.2,37.2,1.491,2.2,88,13,3.0,0.00441,0.00505,65.4,69.2,9,639,.,.,13.44,0.00,0.00
15min,AgWx,beryljct,423,26JUL2020:10:30:00,80.8,13.97,74.7,74.9,74.1,75.0,72.8,35,40,30,1.085,44.9,49.1,39.4,2.324,1.7,109,20,3.0,0.00470,0.00527,66.0,69.1,9,679,.,.,13.43,0.00,0.00
15min,AgWx,beryljct,423,26JUL2020:10:45:00,82.6,13.95,77.3,77.3,76.0,77.3,75.0,38,45,34,1.301,48.7,54.1,45.4,2.455,2.3,99,17,4.0,0.00512,0.00579,66.3,69.1,9,721,.,.,13.43,0.00,0.00
15min,AgWx,beryljct,423,26JUL2020:11:00:00,84.2,13.92,80.1,80.1,78.8,80.1,77.4,32,39,23,0.851,46.0,51.6,39.3,2.784,3.6,122,16,5.1,0.00568,0.00663,66.7,69.0,9,759,.,.,13.43,0.00,0.00
15min,AgWx,beryljct,423,26JUL2020:11:15:00,85.9,13.85,81.2,81.5,80.7,81.5,80.1,29,37,23,1.103,45.6,52.3,39.3,3.003,3.0,93,28,5.2,0.00595,0.00686,67.1,68.9,9,796,.,.,13.43,0.00,0.00
15min,AgWx,beryljct,423,26JUL2020:11:30:00,87.5,13.77,81.7,81.8,81.7,82.2,81.3,28,38,22,0.939,45.2,53.3,39.2,2.784,3.0,77,20,4.4,0.00625,0.00718,67.7,68.9,9,830,.,.,13.42,0.00,0.00
15min,AgWx,beryljct,423,26JUL2020:11:45:00,89.0,13.78,84.1,83.5,82.5,83.5,81.8,22,28,18,0.781,39.7,46.4,34.4,0.066,2.2,90,18,3.8,0.00640,0.00727,68.5,68.9,9,862,.,.,13.43,0.00,0.00
15min,AgWx,beryljct,423,26JUL2020:12:00:00,90.3,13.75,83.0,83.3,83.2,83.6,82.9,21,27,17,0.822,39.1,46.3,33.7,2.872,3.2,81,9.2,5.6,0.00679,0.00786,69.2,68.9,9,891,.,.,13.42,0.00,0.00
15min,AgWx,beryljct,423,26JUL2020:12:15:00,90.7,13.72,83.4,83.8,83.5,83.8,83.3,24,31,18,0.894,43.1,49.5,35.2,4.428,4.0,90,9.7,5.3,0.00706,0.00826,69.9,68.9,9,914,.,.,13.42,0.00,0.00
15min,AgWx,beryljct,423,26JUL2020:12:30:00,91.2,13.71,84.1,84.2,84.1,84.7,83.7,22,31,17,1.050,40.5,50.2,34.2,4.034,3.5,89,11,6.2,0.00716,0.00831,70.7,68.9,9,935,.,.,13.42,0.00,0.00
15min,AgWx,beryljct,423,26JUL2020:12:45:00,91.9,13.7,84.7,85.1,84.9,85.6,84.2,20,27,16,0.830,39.7,47.2,34.7,3.99,2.3,100,28,5.0,0.00713,0.00807,71.5,68.9,9,952,.,.,13.42,0.00,0.00
15min,AgWx,beryljct,423,26JUL2020:13:00:00,92.7,13.32,84.9,85.1,85.2,85.7,84.9,22,29,18,0.830,41.8,49.6,36.2,0.877,3.0,81,18,5.6,0.00736,0.00845,72.3,69.0,9,968,.,.,13.42,0.00,0.00
15min,AgWx,beryljct,423,26JUL2020:13:15:00,94.0,13.26,85.2,86.7,86.7,88.1,85.0,21,27,19,1.047,42.3,49.4,38.5,2.674,1.1,297,57,3.3,0.00719,0.00790,73.0,69.1,9,982,.,.,13.42,0.00,0.00
15min,AgWx,beryljct,423,26JUL2020:13:30:00,95.3,13.31,86.4,88.6,87.2,89.1,85.9,22,29,17,0.847,43.9,50.7,38.6,1.206,1.8,246,34,3.7,0.00751,0.00838,73.9,69.1,9,1003,.,.,13.42,0.00,0.00
15min,AgWx,beryljct,423,26JUL2020:13:45:00,96.4,13.34,85.8,86.5,87.3,89.3,86.2,21,28,18,1.082,42.7,49.9,38.9,2.674,2.1,46,57,5.6,0.00762,0.00857,74.7,69.3,9,1012,.,.,13.42,0.00,0.00
15min,AgWx,beryljct,423,26JUL2020:14:00:00,96.6,13.25,86.9,87.1,86.8,87.6,86.5,24,30,18,0.926,45.3,51.9,38.9,3.683,4.9,123,29,10.6,0.00804,0.00950,75.5,69.4,9,1013,.,.,13.42,0.00,0.00
15min,AgWx,beryljct,423,26JUL2020:14:15:00,96.0,13.27,87.0,86.8,86.8,87.3,86.6,24,31,18,1.187,45.2,52.2,38.4,9.03,6.9,131,22,11.7,0.00846,0.01027,76.4,69.6,9,1035,.,.,13.42,0.00,0.00
15min,AgWx,beryljct,423,26JUL2020:14:30:00,94.3,13.31,84.0,84.8,85.5,86.9,83.6,24,31,18,1.019,44.5,52.5,37.4,5.437,6.9,146,15,11.8,0.00518,0.00678,77.2,69.8,9,508,.,.,13.43,0.01,0.00
15min,AgWx,beryljct,423,26JUL2020:14:45:00,91.9,13.38,83.6,85.1,84.7,85.7,83.1,25,33,18,1.153,45.0,53.2,37.3,5.349,5.7,131,15,10.6,0.00429,0.00560,77.9,69.9,9,421,.,.,13.43,0.01,0.00
15min,AgWx,beryljct,423,26JUL2020:15:00:00,91.1,13.29,88.0,87.6,86.5,88.8,84.0,24,36,17,0.799,44.4,54.5,37.1,2.105,4.1,127,26,7.9,0.00652,0.00776,78.5,70.1,9,830,.,.,13.43,0.00,0.00
15min,AgWx,beryljct,423,26JUL2020:15:15:00,92.4,13.23,87.6,87.7,87.5,88.0,87.3,24,31,18,0.971,46.5,53.4,38.6,9.84,6.8,120,23,14.8,0.00816,0.00992,78.9,70.3,9,990,.,.,13.42,0.00,0.00
15min,AgWx,beryljct,423,26JUL2020:15:30:00,93.2,13.26,88.1,88.0,87.4,88.0,87.3,24,31,19,1.082,46.5,53.2,40.5,3.836,6.5,95,18,10.9,0.00796,0.00969,79.4,70.5,9,966,.,.,13.42,0.00,0.00
15min,AgWx,beryljct,423,26JUL2020:15:45:00,94.5,13.16,88.7,88.2,88.2,89.4,87.9,23,29,16,0.742,45.0,52.9,36.9,3.201,5.3,134,23,9.8,0.00769,0.00922,79.8,70.8,9,947,.,.,13.42,0.00,0.00
15min,AgWx,beryljct,423,26JUL2020:16:00:00,94.9,13.23,81.6,82.5,86.3,89.8,82.5,25,34,16,1.303,46.3,51.6,37.7,6.686,5.2,116,30,10.0,0.00432,0.00556,80.4,71.0,9,446,.,.,13.43,0.00,0.00
15min,AgWx,beryljct,423,26JUL2020:16:15:00,92.8,13.28,86.5,87.1,84.4,87.1,82.1,30,40,18,1.148,48.7,56.1,37.8,2.302,5.7,103,10,9.8,0.00403,0.00528,80.9,71.2,9,425,.,.,13.43,0.01,0.00
15min,AgWx,beryljct,423,26JUL2020:16:30:00,92.7,13.24,87.2,86.9,87.0,87.7,86.2,27,34,19,0.848,48.7,55.5,40.3,5.305,5.7,81,14,10.0,0.00546,0.00683,81.3,71.5,9,645,.,.,13.43,0.00,0.00
15min,AgWx,beryljct,423,26JUL2020:16:45:00,93.4,13.19,86.9,87.2,87.0,87.9,85.2,27,35,17,1.273,48.7,56.5,37.9,7.081,5.0,88,19,7.4,0.00563,0.00690,81.5,71.7,9,692,.,.,13.43,0.00,0.00
15min,AgWx,beryljct,423,26JUL2020:17:00:00,92.9,13.28,84.2,84.8,85.2,87.1,84.1,28,35,21,1.437,48.6,54.4,40.9,2.499,5.3,122,12,7.8,0.00318,0.00434,81.8,71.9,9,294,.,.,13.43,0.00,0.00
15min,AgWx,beryljct,423,26JUL2020:17:15:00,91.4,13.24,86.1,86.8,85.1,86.8,84.0,28,39,17,0.838,47.8,56.5,37.2,4.319,3.7,154,17,6.2,0.00232,0.00315,81.9,72.1,9,205,.,.,13.44,0.00,0.00
15min,AgWx,beryljct,423,26JUL2020:17:30:00,90.1,13.19,81.6,82.5,85.8,87.4,82.5,27,60,17,1.963,46.9,67.8,37.1,0.877,2.3,159,25,6.0,0.00175,0.00231,82.1,72.4,9,163,.,.,13.44,0.00,0.00
15min,AgWx,beryljct,423,26JUL2020:17:45:00,89.5,13.31,87.5,86.9,85.0,86.9,82.5,33,51,23,1.211,52.2,62.6,43.4,4.384,2.8,127,13,4.4,0.00335,0.00403,82.1,72.6,9,460,.,.,13.43,0.00,0.00
15min,AgWx,beryljct,423,26JUL2020:18:00:00,91.4,13.24,86.1,85.8,87.2,88.2,85.6,29,39,17,1.487,50.2,59.3,38.1,5.217,4.3,124,14,6.8,0.00487,0.00597,82.1,72.8,9,606,.,.,13.43,0.00,0.00
15min,AgWx,beryljct,423,26JUL2020:18:15:00,91.8,13.26,82.0,82.3,84.5,86.1,82.3,33,37,29,1.386,52.2,56.1,49.0,3.551,5.0,146,5.3,6.5,0.00272,0.00372,82.0,73.0,9,313,.,.,13.43,0.00,0.00
15min,AgWx,beryljct,423,26JUL2020:18:30:00,90.4,13.29,88.0,87.0,83.8,87.6,81.7,34,42,17,1.040,51.7,57.0,38.0,4.713,4.0,125,18,7.0,0.00237,0.00318,82.0,73.2,9,300,.,.,13.43,0.00,0.00
15min,AgWx,beryljct,423,26JUL2020:18:45:00,89.6,13.15,82.4,83.1,84.2,87.5,81.9,29,37,17,1.413,48.4,54.4,37.0,1.885,4.1,104,19,6.0,0.00152,0.00236,82.0,73.4,9,178,.,.,13.43,0.00,0.00
15min,AgWx,beryljct,423,26JUL2020:19:00:00,87.8,13.13,81.1,81.0,82.4,83.2,80.3,38,49,29,1.030,54.2,60.1,45.4,0.395,0.3,110,16,1.9,0.00044,0.00053,82.0,73.5,9,152,.,.,13.44,0.01,0.00
15min,AgWx,beryljct,423,26JUL2020:19:15:00,87.6,13.08,86.6,85.5,83.4,85.5,80.9,41,52,24,0.980,56.7,63.3,44.1,0.723,0.3,26,0.3,1.3,0.00152,0.00166,81.8,73.7,9,282,.,.,13.43,0.00,0.00
15min,AgWx,beryljct,423,26JUL2020:19:30:00,88.3,13.04,82.7,82.1,84.7,86.6,81.5,30,41,20,1.304,49.1,56.1,40.6,3.617,2.5,62,18,3.9,0.00151,0.00206,81.6,73.9,9,227,.,.,13.44,0.00,0.00
15min,AgWx,beryljct,423,26JUL2020:19:45:00,87.9,13.02,81.3,81.8,82.4,83.9,81.5,38,52,25,1.822,53.5,62.2,44.1,1.337,3.0,99,7.5,3.8,0.00124,0.00179,81.3,74.0,9,180,.,.,13.44,0.00,0.00
15min,AgWx,beryljct,423,26JUL2020:20:00:00,87.3,13.02,82.4,82.9,83.4,85.3,81.2,38,60,22,1.299,54.2,65.9,42.5,4.121,1.3,152,34,4.1,0.00042,0.00068,81.1,74.2,10,138,.,.,13.44,0.00,0.00
15min,AgWx,beryljct,423,26JUL2020:20:15:00,86.3,13.01,80.6,80.5,81.7,83.8,80.5,32,44,25,0.928,49.1,57.5,42.6,6.357,4.5,217,21,7.5,0.00071,0.00106,80.9,74.3,9,73,.,.,13.44,0.01,0.00
15min,AgWx,beryljct,423,26JUL2020:20:30:00,84.3,13.01,79.6,79.7,80.4,80.9,79.7,25,26,23,0.877,41.2,42.5,39.4,6.05,6.6,221,7.0,9.2,0.00096,0.00137,80.6,74.3,9,40,.,.,13.44,0.00,0.00
15min,AgWx,beryljct,423,26JUL2020:20:45:00,82.4,12.97,78.1,78.7,79.3,79.9,78.5,25,27,24,0.861,40.6,42.0,39.2,5.612,5.9,219,4.1,6.9,0.00078,0.00114,80.4,74.5,9,19,.,.,13.44,0.00,0.00
15min,AgWx,beryljct,423,26JUL2020:21:00:00,80.5,12.99,78.1,77.9,78.2,79.0,77.6,26,28,24,0.850,40.5,41.9,38.7,5.722,5.7,224,3.8,7.7,0.00069,0.00101,80.1,74.6,9,3,.,.,13.45,0.00,0.00
15min,AgWx,beryljct,423,26JUL2020:21:15:00,78.9,12.98,77.0,77.1,77.0,78.1,76.1,27,30,24,0.809,40.3,42.6,37.8,4.275,4.8,215,6.1,6.4,0.00052,0.00080,79.7,74.6,9,0,.,.,13.45,0.00,0.00
15min,AgWx,beryljct,423,26JUL2020:21:30:00,77.5,12.97,78.8,77.8,77.5,78.1,76.7,24,28,21,0.723,38.0,41.3,35.6,3.551,4.1,206,3.0,5.2,0.00043,0.00069,79.4,74.7,9,0,.,.,13.44,0.00,0.00
15min,AgWx,beryljct,423,26JUL2020:21:45:00,76.5,12.97,67.6,69.8,76.1,79.0,69.8,28,44,21,1.083,39.9,47.8,35.2,2.609,3.1,189,29,4.1,0.00023,0.00040,79.0,74.7,9,0,.,.,13.45,0.00,0.00
15min,AgWx,beryljct,423,26JUL2020:22:00:00,74.1,12.96,62.6,62.3,64.0,69.6,61.9,55,60,44,1.055,47.5,50.2,45.1,3.88,3.6,120,10,4.5,0.00009,0.00017,78.5,74.8,9,0,.,.,13.45,0.00,0.00
15min,AgWx,beryljct,423,26JUL2020:22:15:00,71.5,12.94,64.9,67.6,64.9,68.2,62.3,46,60,34,0.953,43.1,48.2,38.3,0,3.3,180,56,5.9,0.00012,0.00021,78.1,74.8,9,0,.,.,13.45,0.00,0.00
15min,AgWx,beryljct,423,26JUL2020:22:30:00,70.0,12.95,69.3,66.7,67.8,69.9,65.2,35,43,28,0.805,39.0,43.9,35.3,3.771,2.3,299,24,7.0,0.00002,0.00008,77.7,74.8,9,0,.,.,13.45,0.00,0.00
15min,AgWx,beryljct,423,26JUL2020:22:45:00,69.3,12.92,72.3,72.1,70.5,72.6,67.0,32,39,27,0.758,39.4,43.1,36.4,2.258,2.7,160,30,5.9,0.00012,0.00023,77.2,74.8,9,0,.,.,13.45,0.00,0.00
15min,AgWx,beryljct,423,26JUL2020:23:00:00,68.8,12.92,66.2,66.4,67.4,72.4,64.5,41,53,28,1.018,42.8,47.5,37.5,2.236,1.9,212,79,3.9,-0.00006,-0.00005,76.4,74.8,9,0,.,.,13.45,0.00,0.00
15min,AgWx,beryljct,423,26JUL2020:23:15:00,68.0,12.91,66.3,67.1,66.7,68.4,64.1,39,54,32,0.782,40.5,47.4,36.4,1.096,1.8,170,38,3.2,-0.00007,-0.00006,75.6,74.7,9,0,.,.,13.45,0.00,0.00
15min,AgWx,beryljct,423,26JUL2020:23:30:00,67.1,12.92,65.0,63.6,63.9,67.0,61.3,43,56,32,0.833,40.6,45.8,35.9,5.919,2.7,158,48,9.4,0.00004,0.00011,75.0,74.6,9,0,.,.,13.46,0.00,0.00
15min,AgWx,beryljct,423,26JUL2020:23:45:00,66.4,12.91,63.3,68.0,67.6,69.7,63.7,30,40,26,0.761,34.8,40.5,32.1,3.771,1.7,6.2,55,5.7,-0.00008,-0.00006,74.3,74.5,9,0,.,.,13.46,0.00,0.00
15min,AgWx,beryljct,423,27JUL2020:00:00:00,66.2,12.9,66.4,66.1,67.2,69.9,64.2,36,49,28,0.853,38.8,45.0,34.9,0.943,3.2,165,24,5.2,0.00016,0.00029,73.8,74.4,9,0,.,.,13.45,0.00,0.00
15min,AgWx,beryljct,423,27JUL2020:00:15:00,66.0,12.89,64.9,67.9,66.9,68.5,65.3,36,43,31,0.869,39.1,43.0,36.3,0,1.6,149,81,3.1,-0.00010,-0.00010,73.3,74.3,10,0,.,.,13.45,0.00,0.00
15min,AgWx,beryljct,423,27JUL2020:00:30:00,65.7,12.87,60.8,59.7,63.6,67.6,59.2,51,71,32,1.120,44.2,50.0,36.5,1.381,0.9,201,62,2.8,-0.00024,-0.00033,72.8,74.2,9,0,.,.,13.46,0.00,0.00
15min,AgWx,bigpiney,439,26JUL2020:00:00:00,56.7,12.74,52.3,52.3,53.0,55.1,52.0,62,65,56,0.855,40.2,40.6,39.5,2.981,3.4,251,14,4.6,-0.00001,0.00002,53.9,51.5,49,0,0,0.0,7.97,0.00,0.00
15min,AgWx,bigpiney,439,26JUL2020:00:15:00,56.0,12.72,50.2,51.0,51.5,52.4,50.6,64,68,61,0.823,39.9,40.7,39.0,2.433,3.2,270,15,4.4,-0.00004,-0.00003,53.9,51.5,49,0,0,0.0,7.97,0.00,0.00
15min,AgWx,bigpiney,439,26JUL2020:00:30:00,55.2,12.72,51.0,50.4,49.7,50.9,48.6,69,72,65,0.812,39.8,40.3,39.2,2.85,3.7,249,13,4.6,-0.00003,-0.00002,53.9,51.6,49,0,0,0.0,7.97,0.00,0.00
15min,AgWx,bigpiney,439,26JUL2020:00:45:00,54.2,12.7,45.8,45.9,47.7,50.6,45.9,72,76,65,0.805,39.3,39.8,38.9,4.099,3.7,222,12,4.6,-0.00005,-0.00004,53.8,51.5,49,0,0,0.0,7.97,0.00,0.00
15min,AgWx,bigpiney,439,26JUL2020:01:00:00,53.2,12.7,46.1,46.0,46.1,46.3,45.9,76,77,76,0.805,39.1,39.3,38.9,3.705,3.9,229,12,4.5,-0.00006,-0.00006,53.8,51.6,49,0,0,0.0,7.97,0.00,0.00
15min,AgWx,bigpiney,439,26JUL2020:01:15:00,52.2,12.69,46.9,46.7,45.8,46.7,45.3,76,77,74,0.799,38.7,39.0,38.5,4.867,4.3,217,10,5.3,-0.00004,-0.00003,53.8,51.6,49,0,0,0.0,7.97,0.00,0.00
15min,AgWx,bigpiney,439,26JUL2020:01:30:00,51.5,12.68,47.5,47.3,47.1,47.3,46.7,73,74,73,0.807,38.9,39.1,38.7,4.319,4.7,238,7.3,5.5,-0.00001,0.00001,53.7,51.6,49,0,0,0.0,7.97,0.00,0.00
15min,AgWx,bigpiney,439,26JUL2020:01:45:00,51.1,12.68,49.6,48.8,47.7,48.8,47.4,72,73,69,0.813,39.2,39.4,39.1,4.384,4.4,240,6.8,5.6,-0.00002,0.00000,53.7,51.6,49,0,0,0.0,7.97,0.00,0.00
15min,AgWx,bigpiney,439,26JUL2020:02:00:00,51.0,12.66,49.5,50.1,49.7,50.9,48.7,66,70,61,0.759,38.6,39.3,37.4,1.666,2.9,303,46,4.8,-0.00007,-0.00006,53.7,51.7,49,0,0,0.0,7.97,0.00,0.00
15min,AgWx,bigpiney,439,26JUL2020:02:15:00,50.9,12.64,46.2,47.1,49.7,51.0,47.1,63,68,61,0.751,37.5,37.9,36.9,3.902,1.9,334,67,4.1,-0.00013,-0.00016,53.7,51.6,49,0,0,0.0,7.97,0.00,0.00
15min,AgWx,bigpiney,439,26JUL2020:02:30:00,50.7,12.65,45.6,46.3,46.5,47.5,45.7,70,72,68,0.743,37.3,37.6,36.9,3.771,2.0,95,39,3.9,-0.00014,-0.00017,53.6,51.6,49,0,0,0.0,7.97,0.00,0.00
15min,AgWx,bigpiney,439,26JUL2020:02:45:00,50.0,12.64,47.5,47.2,45.6,47.2,44.9,72,74,69,0.765,37.1,37.7,36.8,1.6,1.6,93,31,4.1,-0.00017,-0.00022,53.6,51.6,49,0,0,0.0,7.97,0.00,0.00
15min,AgWx,bigpiney,439,26JUL2020:03:00:00,49.3,12.64,47.1,45.9,46.1,47.3,44.2,71,76,68,0.756,37.3,37.9,36.2,1.008,1.5,176,20,3.4,-0.00018,-0.00023,53.5,51.6,49,0,0,0.0,7.97,0.00,0.00
15min,AgWx,bigpiney,439,26JUL2020:03:15:00,48.6,12.63,46.2,47.9,47.1,47.9,46.0,69,72,67,0.758,37.4,37.7,36.7,3.091,1.5,135,16,3.1,-0.00018,-0.00024,53.5,51.6,49,0,0,0.0,7.97,0.00,0.00
15min,AgWx,bigpiney,439,26JUL2020:03:30:00,47.9,12.61,44.6,44.0,46.2,48.0,44.0,70,75,66,0.737,37.0,37.8,36.2,2.346,2.2,164,17,3.8,-0.00012,-0.00015,53.4,51.6,49,0,0,0.0,7.97,0.00,0.00
15min,AgWx,bigpiney,439,26JUL2020:03:45:00,47.3,12.6,42.6,42.2,42.9,45.5,41.7,78,82,73,0.727,36.5,38.3,35.8,2.543,1.6,5.9,57,3.3,-0.00018,-0.00023,53.4,51.6,49,0,0,0.0,7.97,0.00,0.00
15min,AgWx,bigpiney,439,26JUL2020:04:00:00,46.6,12.6,39.4,40.1,42.6,44.4,40.1,78,84,75,0.703,36.4,37.2,35.4,2.302,2.9,94,45,4.0,-0.00011,-0.00012,53.3,51.6,49,0,0,0.0,7.97,0.00,0.00
15min,AgWx,bigpiney,439,26JUL2020:04:15:00,46.0,12.59,39.8,39.5,40.0,41.1,39.2,86,89,84,0.707,36.3,37.1,35.2,1.096,0.6,199,39,2.4,-0.00024,-0.00035,53.3,51.6,49,0,1,0.0,7.97,0.00,0.00
15min,AgWx,bigpiney,439,26JUL2020:04:30:00,45.1,12.58,41.1,40.4,40.9,42.2,39.5,85,88,81,0.724,36.6,37.5,35.8,2.806,2.4,244,22,3.7,-0.00015,-0.00018,53.3,51.7,49,0,1,0.0,7.97,0.00,0.00
15min,AgWx,bigpiney,439,26JUL2020:04:45:00,44.4,12.56,40.5,40.1,40.2,40.7,39.8,85,86,84,0.723,36.0,36.4,35.7,3.42,3.2,224,4.4,3.8,-0.00011,-0.00013,53.2,51.6,49,0,1,0.0,7.97,0.00,0.00
15min,AgWx,bigpiney,439,26JUL2020:05:00:00,43.9,12.55,41.6,41.0,40.4,41.0,40.0,86,87,84,0.734,36.4,36.7,36.0,3.442,3.3,249,8.8,4.4,-0.00012,-0.00014,53.2,51.7,49,0,1,0.0,7.97,0.00,0.00
15min,AgWx,bigpiney,439,26JUL2020:05:15:00,43.6,12.54,40.1,39.8,40.8,41.7,39.8,85,86,83,0.714,36.5,37.2,35.7,3.508,2.7,256,12,4.1,-0.00014,-0.00017,53.1,51.6,49,0,1,0.0,7.97,0.00,0.00
15min,AgWx,bigpiney,439,26JUL2020:05:30:00,43.3,12.54,41.0,40.8,40.2,40.8,39.8,86,87,85,0.738,36.4,36.8,36.0,3.88,3.9,236,7.0,4.9,-0.00010,-0.00011,53.0,51.6,49,0,1,0.0,7.97,0.00,0.00
15min,AgWx,bigpiney,439,26JUL2020:05:45:00,43.2,12.52,39.6,39.7,40.2,40.8,39.6,86,86,85,0.712,36.3,36.9,35.7,3.727,3.6,242,9.7,4.7,-0.00011,-0.00012,53.0,51.6,49,0,1,0.0,7.97,0.00,0.00
15min,AgWx,bigpiney,439,26JUL2020:06:00:00,43.1,12.51,39.4,39.1,39.2,39.7,38.9,87,88,86,0.708,35.6,35.8,35.4,3.617,3.8,230,6.9,5.8,-0.00010,-0.00011,52.9,51.6,49,1,1,0.0,7.97,0.00,0.00
15min,AgWx,bigpiney,439,26JUL2020:06:15:00,43.0,12.51,40.2,39.8,39.4,39.8,39.1,87,88,86,0.715,35.8,36.0,35.5,4.341,3.9,219,8.6,5.3,-0.00009,-0.00010,52.8,51.6,49,5,1,0.0,7.97,0.00,0.00
15min,AgWx,bigpiney,439,26JUL2020:06:30:00,42.9,12.53,40.6,40.5,39.1,40.6,38.1,87,89,85,0.731,35.6,36.8,34.8,0.986,3.5,240,41,4.9,-0.00025,-0.00021,52.8,51.6,49,22,1,0.0,7.97,0.00,0.00
15min,AgWx,bigpiney,439,26JUL2020:06:45:00,43.0,12.54,41.2,41.2,40.7,41.2,40.2,85,86,83,0.735,36.4,36.6,36.2,0.636,0.5,23,30,1.6,-0.00023,-0.00023,52.7,51.5,49,51,1,0.0,7.97,0.00,0.00
15min,AgWx,bigpiney,439,26JUL2020:07:00:00,43.4,12.57,42.2,41.8,41.1,41.8,40.7,85,86,84,0.772,36.9,37.9,36.6,0.789,1.4,139,27,2.5,-0.00003,0.00000,52.7,51.5,49,83,1,0.0,7.97,0.00,0.00
15min,AgWx,bigpiney,439,26JUL2020:07:15:00,44.3,12.57,45.0,44.7,43.3,44.7,41.8,84,86,81,0.820,38.6,39.4,37.9,2.148,1.8,171,8.8,3.0,0.00018,0.00023,52.6,51.5,49,119,1,0.0,7.97,0.00,0.00